GW2129 Weather Reports


Display with metric or nautical units.
time (UTC)temp
F
wind
direction
speed
MPH
gust
MPH
rain 1hr
in
rain 24hr
in
rain mn
in
humidity
%
barometer
mb
20260510185331 86 176 2.0 5.0 0.00 0.00 0.00 65 1013.9
20260510184827 84 223 2.0 8.0 0.00 0.00 0.00 67 1014.0
20260510184325 85 246 2.0 6.0 0.00 0.00 0.00 67 1014.0
20260510183824 85 124 2.0 5.0 0.00 0.00 0.00 66 1014.3
20260510183320 84 145 4.0 5.0 0.00 0.00 0.00 69 1014.0
20260510182816 85 93 8.0 9.0 0.00 0.00 0.00 68 1014.2
20260510182313 84 127 3.0 7.0 0.00 0.00 0.00 68 1014.3
20260510181808 85 186 2.0 5.0 0.00 0.00 0.00 68 1014.4
20260510181306 85 178 0.0 4.0 0.00 0.00 0.00 66 1014.5
20260510180802 84 155 2.0 5.0 0.00 0.00 0.00 68 1014.5
20260510180259 83 151 3.0 9.0 0.00 0.00 0.00 70 1014.6
20260510175756 85 104 3.0 4.0 0.00 0.00 0.00 68 1014.5
20260510175251 83 149 1.0 5.0 0.00 0.00 0.00 70 1014.7
20260510174749 83 153 6.0 6.0 0.00 0.00 0.00 70 1014.9
20260510174246 83 83 2.0 4.0 0.00 0.00 0.00 71 1015.0
20260510173742 82 91 6.0 6.0 0.00 0.00 0.00 72 1015.0
20260510173238 82 119 2.0 7.0 0.00 0.00 0.00 73 1015.1
20260510172734 82 156 4.0 6.0 0.00 0.00 0.00 72 1015.0
20260510172230 82 182 1.0 9.0 0.00 0.00 0.00 70 1015.2
20260510171727 81 92 5.0 9.0 0.00 0.00 0.00 74 1015.2
20260510171224 81 108 1.0 8.0 0.00 0.00 0.00 75 1015.3
20260510170721 81 131 7.0 9.0 0.00 0.00 0.00 74 1015.3
20260510170217 81 257 1.0 5.0 0.00 0.00 0.00 73 1015.3
20260510165713 80 124 3.0 7.0 0.00 0.00 0.00 79 1015.1
20260510165209 80 130 2.0 7.0 0.00 0.00 0.00 76 1015.0
20260510164707 80 100 2.0 6.0 0.00 0.00 0.00 77 1015.4
20260510164204 80 138 5.0 7.0 0.00 0.00 0.00 75 1015.1
20260510163659 80 105 3.0 5.0 0.00 0.00 0.00 76 1015.3
20260510163155 79 84 5.0 9.0 0.00 0.00 0.00 79 1015.0
20260510162654 80 116 5.0 5.0 0.00 0.00 0.00 79 1015.3
20260510162152 79 98 5.0 10.0 0.00 0.00 0.00 79 1015.4
20260510161647 80 112 3.0 8.0 0.00 0.00 0.00 78 1015.2
20260510161144 78 122 0.0 5.0 0.00 0.00 0.00 79 1015.3
20260510160641 78 114 3.0 8.0 0.00 0.00 0.00 81 1015.3
20260510160136 78 128 5.0 5.0 0.00 0.00 0.00 82 1015.4
20260510155632 77 89 7.0 8.0 0.00 0.00 0.00 83 1015.4
20260510155128 78 111 6.0 6.0 0.00 0.00 0.00 85 1015.3
20260510154624 76 103 3.0 3.0 0.00 0.00 0.00 86 1015.2
20260510154120 76 93 1.0 4.0 0.00 0.00 0.00 86 1015.1
20260510153615 75 116 2.0 6.0 0.00 0.00 0.00 87 1015.2
20260510153112 75 86 4.0 5.0 0.00 0.00 0.00 86 1015.0
20260510152609 74 133 3.0 8.0 0.00 0.00 0.00 90 1015.2
20260510152105 74 98 4.0 5.0 0.00 0.00 0.00 90 1014.7
20260510151601 74 158 2.0 4.0 0.00 0.00 0.00 90 1014.9
20260510151100 74 224 0.0 3.0 0.00 0.00 0.00 90 1014.6
20260510150559 73 168 0.0 5.0 0.00 0.00 0.00 90 1014.7
20260510150055 74 162 0.0 4.0 0.00 0.00 0.00 90 1014.7
20260510145552 74 255 1.0 3.0 0.00 0.00 0.00 90 1014.5
20260510145049 73 294 1.0 3.0 0.00 0.00 0.00 91 1014.3
20260510144545 73 233 2.0 4.0 0.00 0.00 0.00 92 1014.4
20260510144041 73 232 0.0 4.0 0.00 0.00 0.00 92 1014.5
20260510143536 73 87 2.0 3.0 0.00 0.00 0.00 92 1014.4
20260510143033 73 114 1.0 4.0 0.00 0.00 0.00 92 1014.2
20260510142530 73 134 3.0 5.0 0.00 0.00 0.00 91 1014.3
20260510142027 73 107 2.0 4.0 0.00 0.00 0.00 90 1014.2
20260510141523 73 15 0.0 3.0 0.00 0.00 0.00 90 1014.1
20260510141021 73 205 2.0 3.0 0.00 0.00 0.00 91 1013.9
20260510140518 73 242 0.0 1.0 0.00 0.00 0.00 92 1013.9
20260510140017 72 192 0.0 3.0 0.00 0.00 0.00 93 1013.7
20260510135513 72 6 1.0 2.0 0.00 0.00 0.00 93 1013.6
20260510135010 72 278 0.0 2.0 0.00 0.00 0.00 93 1013.7
20260510134507 72 225 2.0 3.0 0.00 0.00 0.00 93 1013.4
20260510134004 72 50 0.0 3.0 0.00 0.00 0.00 93 1013.6
20260510133459 71 203 2.0 2.0 0.00 0.00 0.00 93 1013.7
20260510132955 71 293 0.0 2.0 0.00 0.00 0.00 94 1013.6
20260510132453 71 83 1.0 2.0 0.00 0.00 0.00 94 1013.4
20260510131949 71 12 0.0 2.0 0.00 0.00 0.00 95 1013.5
20260510131448 70 103 1.0 2.0 0.00 0.00 0.00 95 1013.3
20260510130944 69 79 2.0 2.0 0.00 0.00 0.00 96 1013.4
20260510130441 69 95 1.0 2.0 0.00 0.00 0.00 96 1013.3
20260510125938 69 72 0.0 1.0 0.00 0.00 0.00 96 1012.9
20260510125434 69 15 0.0 2.0 0.00 0.00 0.00 96 1012.9
20260510124931 69 50 0.0 1.0 0.00 0.00 0.00 97 1012.8
20260510124427 68 21 0.0 2.0 0.00 0.00 0.00 97 1012.7
20260510123924 68 135 0.0 1.0 0.00 0.00 0.00 97 1012.8
20260510123420 68 60 0.0 1.0 0.00 0.00 0.00 97 1012.8
20260510122916 68 129 0.0 1.0 0.00 0.00 0.00 97 1012.6
20260510122411 68 118 0.0 1.0 0.00 0.00 0.00 97 1012.6
20260510121907 68 286 0.0 0.0 0.00 0.00 0.00 97 1012.4
20260510121405 67 80 2.0 2.0 0.00 0.00 0.00 97 1012.6
20260510120902 67 98 0.0 0.0 0.00 0.00 0.00 97 1012.6
20260510120400 67 269 0.0 0.0 0.00 0.00 0.00 97 1012.3
20260510115855 67 262 2.0 2.0 0.00 0.00 0.00 97 1012.0
20260510115352 67 287 2.0 2.0 0.00 0.00 0.00 97 1011.9
20260510114848 67 261 1.0 2.0 0.00 0.00 0.00 97 1012.1
20260510114345 67 269 0.0 2.0 0.00 0.00 0.00 97 1012.0
20260510113846 67 205 2.0 2.0 0.00 0.00 0.00 97 1011.8
20260510113342 67 210 1.0 2.0 0.00 0.00 0.00 96 1011.6
20260510112839 67 233 0.0 3.0 0.00 0.00 0.00 96 1011.8
20260510112336 67 230 1.0 2.0 0.00 0.00 0.00 96 1011.8
20260510111832 67 41 2.0 3.0 0.00 0.00 0.00 96 1011.7
20260510111329 67 353 0.0 5.0 0.00 0.00 0.00 96 1011.7
20260510110828 68 216 2.0 2.0 0.00 0.00 0.00 96 1011.7
20260510110326 68 244 1.0 3.0 0.00 0.00 0.00 96 1011.7
20260510105822 68 223 3.0 4.0 0.00 0.00 0.00 96 1011.8
20260510105316 68 233 2.0 4.0 0.00 0.00 0.00 96 1011.9
20260510104813 68 216 2.0 2.0 0.00 0.00 0.00 96 1011.8
20260510104310 68 304 1.0 2.0 0.00 0.00 0.00 96 1011.8
20260510103806 68 242 3.0 4.0 0.00 0.00 0.00 96 1011.7
20260510103303 68 217 0.0 2.0 0.00 0.00 0.00 96 1011.7
20260510102758 68 173 0.0 2.0 0.00 0.00 0.00 96 1012.0
20260510102254 68 229 0.0 2.0 0.00 0.00 0.00 96 1012.0
20260510101751 68 144 0.0 3.0 0.00 0.00 0.00 96 1011.9
20260510101250 68 248 0.0 2.0 0.00 0.00 0.00 97 1011.9
20260510100745 68 123 0.0 2.0 0.00 0.00 0.00 97 1012.1
20260510100243 68 233 1.0 2.0 0.00 0.00 0.00 97 1012.2
20260510095738 68 267 0.0 3.0 0.00 0.00 0.00 97 1012.3
20260510095234 68 291 2.0 2.0 0.00 0.00 0.00 97 1012.1
20260510094733 68 138 1.0 2.0 0.00 0.00 0.00 97 1012.0
20260510094228 68 223 0.0 3.0 0.00 0.00 0.00 97 1012.1
20260510093724 68 269 0.0 3.0 0.00 0.00 0.00 97 1012.2
20260510093222 68 351 0.0 2.0 0.00 0.00 0.00 97 1012.3
20260510092718 68 142 0.0 1.0 0.00 0.00 0.00 97 1012.4
20260510092214 68 111 1.0 2.0 0.00 0.00 0.00 97 1012.3
20260510091710 67 113 0.0 0.0 0.00 0.00 0.00 97 1012.0
20260510091206 68 129 0.0 1.0 0.00 0.00 0.00 97 1011.8
20260510090703 68 237 1.0 1.0 0.00 0.00 0.00 97 1012.0
20260510090200 68 93 0.0 1.0 0.00 0.00 0.00 97 1012.0
20260510085655 68 193 0.0 0.0 0.00 0.00 0.00 96 1011.9
20260510085150 68 193 0.0 1.0 0.00 0.00 0.00 96 1011.9
20260510084647 68 246 0.0 0.0 0.00 0.00 0.00 96 1012.2
20260510084143 69 246 0.0 1.0 0.00 0.00 0.00 96 1011.9
20260510083640 69 269 0.0 1.0 0.00 0.00 0.00 96 1011.6
20260510083137 68 223 0.0 2.0 0.00 0.00 0.00 96 1011.9
20260510082633 68 269 0.0 0.0 0.00 0.00 0.00 96 1012.0
20260510082129 68 263 0.0 0.0 0.00 0.00 0.00 96 1011.9
20260510081623 68 293 0.0 0.0 0.00 0.00 0.00 96 1011.7
20260510081119 68 293 0.0 0.0 0.00 0.00 0.00 96 1012.1
20260510080613 69 293 0.0 0.0 0.00 0.00 0.00 96 1011.9
20260510080110 69 269 0.0 1.0 0.00 0.00 0.00 95 1011.7
20260510075602 69 260 0.0 1.0 0.00 0.00 0.00 95 1011.9
20260510075058 69 304 0.0 0.0 0.00 0.00 0.00 95 1012.0
20260510074556 69 37 0.0 0.0 0.00 0.00 0.00 94 1012.0
20260510074051 69 37 0.0 0.0 0.00 0.00 0.00 94 1011.9
20260510073548 69 322 0.0 0.0 0.00 0.00 0.00 94 1012.0
20260510073045 70 322 0.0 0.0 0.00 0.00 0.00 94 1012.1
20260510072541 70 320 0.0 0.0 0.00 0.00 0.00 94 1012.0
20260510072037 70 217 0.0 0.0 0.00 0.00 0.00 93 1012.1
20260510071533 70 255 1.0 2.0 0.00 0.00 0.00 94 1012.0
20260510071032 70 237 0.0 2.0 0.00 0.00 0.00 94 1012.0
20260510070528 70 219 0.0 2.0 0.00 0.00 0.00 94 1012.0
20260510070025 70 222 0.0 2.0 0.00 0.00 0.00 95 1012.0
20260510065521 70 269 0.0 1.0 0.00 0.00 0.00 95 1011.8
20260510065017 70 275 1.0 1.0 0.00 0.00 0.00 95 1011.7
20260510064514 70 229 0.0 0.0 0.00 0.00 0.00 94 1012.2
20260510064011 70 229 0.0 0.0 0.00 0.00 0.00 94 1012.1
20260510063508 70 304 0.0 0.0 0.00 0.00 0.00 93 1012.1
20260510063005 70 62 0.0 0.0 0.00 0.00 0.00 93 1012.0
20260510062501 70 293 0.0 0.0 0.00 0.00 0.00 92 1011.8
20260510061955 71 293 0.0 0.0 0.00 0.00 0.00 92 1011.7
20260510061453 71 186 0.0 0.0 0.00 0.00 0.00 92 1012.0
20260510060949 71 249 0.0 2.0 0.00 0.00 0.00 92 1011.8
20260510060446 71 227 0.0 0.0 0.00 0.00 0.00 92 1012.0
20260510055942 70 322 0.0 0.0 0.00 0.00 0.00 91 1011.6
20260510055438 71 242 0.0 0.0 0.00 0.00 0.00 91 1011.7
20260510054937 71 269 0.0 1.0 0.00 0.00 0.00 90 1011.7
20260510054431 71 297 0.0 0.0 0.00 0.00 0.00 89 1011.7
20260510053927 71 242 0.0 1.0 0.00 0.00 0.00 89 1011.8
20260510053422 71 297 0.0 1.0 0.00 0.00 0.00 89 1011.9
20260510052919 72 246 0.0 0.0 0.00 0.00 0.00 89 1012.0
20260510052415 72 250 0.0 1.0 0.00 0.00 0.00 89 1011.9
20260510051911 72 256 0.0 1.0 0.00 0.00 0.00 89 1012.0
20260510051408 72 297 0.0 0.0 0.00 0.00 0.00 88 1011.9
20260510050904 72 297 0.0 0.0 0.00 0.00 0.00 87 1011.9
20260510050401 72 235 0.0 0.0 0.00 0.00 0.00 87 1012.0
20260510045858 72 221 1.0 1.0 0.00 0.29 0.29 87 1011.7
20260510045355 73 224 0.0 0.0 0.00 0.29 0.29 86 1011.8
20260510044852 73 235 1.0 1.0 0.00 0.29 0.29 86 1011.7
20260510044349 73 297 0.0 0.0 0.00 0.29 0.29 85 1011.6
20260510043845 74 264 1.0 2.0 0.00 0.29 0.29 84 1011.7
20260510043341 74 352 0.0 1.0 0.00 0.29 0.29 84 1011.6
20260510042839 73 221 1.0 3.0 0.00 0.29 0.29 88 1011.8
20260510042335 73 212 0.0 0.0 0.00 0.29 0.29 90 1011.5
20260510041831 73 55 0.0 0.0 0.00 0.29 0.29 90 1011.4
20260510041329 73 235 0.0 0.0 0.00 0.29 0.29 88 1011.6
20260510040826 73 263 1.0 2.0 0.00 0.29 0.29 89 1011.5
20260510040322 73 269 2.0 2.0 0.00 0.29 0.29 88 1011.3
20260510035818 73 217 0.0 0.0 0.00 0.29 0.29 89 1011.3
20260510035314 73 242 0.0 0.0 0.00 0.29 0.29 90 1011.3
20260510034810 73 228 0.0 1.0 0.00 0.29 0.29 89 1011.2
20260510034308 73 285 0.0 1.0 0.00 0.29 0.29 90 1011.3
20260510033804 73 293 0.0 0.0 0.00 0.29 0.29 90 1011.2
20260510033301 74 237 0.0 2.0 0.00 0.29 0.29 90 1011.2
20260510032757 74 269 0.0 0.0 0.00 0.29 0.29 88 1011.0
20260510032254 74 266 1.0 1.0 0.00 0.29 0.29 88 1011.0
20260510031749 75 256 1.0 2.0 0.00 0.29 0.29 88 1011.1
20260510031245 75 260 1.0 2.0 0.00 0.29 0.29 88 1010.9
20260510030744 75 240 1.0 1.0 0.00 0.29 0.29 88 1010.9
20260510030237 75 230 1.0 1.0 0.00 0.29 0.29 88 1010.8
20260510025734 75 232 1.0 2.0 0.00 0.29 0.29 88 1010.7
20260510025232 75 230 0.0 0.0 0.00 0.29 0.29 87 1010.6
20260510024728 75 257 1.0 2.0 0.00 0.29 0.29 86 1010.6
20260510024225 76 282 0.0 1.0 0.00 0.29 0.29 84 1010.7
20260510023720 77 233 0.0 2.0 0.00 0.29 0.29 84 1010.7
20260510023217 77 251 1.0 2.0 0.00 0.29 0.29 83 1010.4
20260510022713 77 230 0.0 0.0 0.00 0.29 0.29 81 1010.6
20260510022203 77 191 0.0 2.0 0.00 0.29 0.29 82 1010.4
20260510021658 77 195 0.0 1.0 0.00 0.29 0.29 82 1010.4
20260510021155 77 269 0.0 1.0 0.00 0.29 0.29 82 1010.3
20260510020650 77 230 0.0 0.0 0.00 0.29 0.29 83 1010.5
20260510020145 77 309 0.0 0.0 0.00 0.29 0.29 83 1010.1
20260510015642 78 286 1.0 1.0 0.00 0.29 0.29 82 1010.1
20260510015138 78 297 0.0 2.0 0.00 0.29 0.29 81 1010.1
20260510014638 78 298 0.0 0.0 0.00 0.29 0.29 82 1009.9
20260510014136 78 237 1.0 2.0 0.00 0.29 0.29 82 1009.9
20260510013631 78 294 1.0 1.0 0.00 0.29 0.29 82 1009.8
20260510013127 79 309 0.0 0.0 0.00 0.29 0.29 82 1009.8
20260510012626 79 299 0.0 1.0 0.00 0.29 0.29 80 1009.9
20260510012123 80 274 0.0 1.0 0.00 0.29 0.29 79 1009.8
20260510011622 80 259 1.0 2.0 0.00 0.29 0.29 78 1009.6
20260510011118 80 240 0.0 2.0 0.00 0.29 0.29 76 1009.8
20260510010615 80 242 0.0 1.0 0.00 0.29 0.29 76 1009.6
20260510010113 81 284 0.0 1.0 0.00 0.29 0.29 74 1009.3
20260510005608 81 258 0.0 1.0 0.00 0.29 0.29 73 1009.4
20260510005106 82 296 1.0 1.0 0.00 0.29 0.29 73 1009.4
20260510004603 82 129 0.0 2.0 0.00 0.29 0.29 71 1009.5
20260510004101 82 144 0.0 1.0 0.00 0.29 0.29 71 1009.2
20260510003558 83 140 0.0 1.0 0.00 0.29 0.29 70 1009.1
20260510003053 83 104 0.0 2.0 0.00 0.29 0.29 69 1009.2
20260510002548 84 269 0.0 1.0 0.00 0.29 0.29 67 1009.4
20260510002046 86 140 0.0 2.0 0.00 0.29 0.29 61 1009.2
20260510001543 87 269 1.0 2.0 0.00 0.29 0.29 57 1009.3
20260510001042 88 284 0.0 1.0 0.00 0.29 0.29 56 1009.2
20260510000536 88 275 2.0 2.0 0.00 0.29 0.29 52 1009.0
20260510000034 86 264 0.0 3.0 0.00 0.29 0.29 51 1009.1
20260509235530 86 189 1.0 2.0 0.00 0.29 0.29 52 1008.9
20260509235027 86 159 1.0 2.0 0.00 0.29 0.29 54 1009.0
20260509234523 85 174 2.0 2.0 0.00 0.29 0.29 59 1009.0
20260509234021 85 168 0.0 3.0 0.00 0.29 0.29 60 1008.8
20260509233518 87 241 0.0 2.0 0.00 0.29 0.29 62 1009.0
20260509233015 87 272 2.0 3.0 0.00 0.29 0.29 63 1008.7
20260509232512 87 250 2.0 3.0 0.00 0.29 0.29 61 1008.8
20260509232009 84 238 2.0 2.0 0.00 0.29 0.29 62 1008.8
20260509231505 83 142 2.0 4.0 0.00 0.29 0.29 68 1009.0
20260509231003 87 275 1.0 2.0 0.00 0.29 0.29 67 1008.9
20260509230459 87 277 3.0 3.0 0.00 0.29 0.29 61 1008.9
20260509225956 85 249 2.0 3.0 0.00 0.29 0.29 61 1009.0
20260509225452 84 283 2.0 3.0 0.00 0.29 0.29 70 1008.8
20260509224948 82 271 3.0 3.0 0.00 0.29 0.29 68 1008.9
20260509224443 79 112 2.0 2.0 0.00 0.29 0.29 75 1008.8
20260509223941 77 253 0.0 2.0 0.00 0.29 0.29 76 1008.9
20260509223437 76 141 1.0 4.0 0.00 0.29 0.29 83 1008.7
20260509222935 75 291 3.0 4.0 0.02 0.29 0.29 85 1008.4
20260509222430 75 262 3.0 6.0 0.02 0.29 0.29 82 1008.5
20260509221926 73 262 3.0 4.0 0.00 0.29 0.29 87 1008.8
20260509221423 72 264 2.0 3.0 0.00 0.29 0.29 90 1008.6
20260509220918 71 258 5.0 9.0 0.09 0.29 0.29 87 1008.2
20260509220415 70 169 3.0 9.0 0.33 0.29 0.29 86 1008.4
20260509215911 68 279 0.0 6.0 0.54 0.26 0.26 87 1008.8
20260509215406 68 260 3.0 8.0 0.76 0.22 0.22 84 1009.0
20260509214904 70 255 6.0 11.0 0.97 0.16 0.16 80 1009.8
20260509214401 72 38 11.0 21.0 0.45 0.07 0.07 78 1009.9
20260509213858 79 359 8.0 11.0 0.00 0.00 0.00 70 1009.4
20260509213353 85 114 11.0 14.0 0.00 0.00 0.00 63 1009.2
20260509212852 90 248 2.0 4.0 0.00 0.00 0.00 54 1008.9
20260509212349 93 271 3.0 5.0 0.00 0.00 0.00 54 1008.6
20260509211844 94 261 1.0 5.0 0.00 0.00 0.00 51 1009.0
20260509211341 95 291 0.0 4.0 0.00 0.00 0.00 51 1008.8
20260509210837 93 292 1.0 5.0 0.00 0.00 0.00 53 1008.7
20260509210335 93 287 1.0 4.0 0.00 0.00 0.00 53 1009.0
20260509205834 94 223 2.0 4.0 0.00 0.00 0.00 53 1008.9
20260509205329 93 280 3.0 4.0 0.00 0.00 0.00 53 1009.0
20260509204826 93 232 4.0 9.0 0.00 0.00 0.00 53 1009.0
20260509204322 93 247 2.0 5.0 0.00 0.00 0.00 54 1009.3
20260509203819 93 260 3.0 5.0 0.00 0.00 0.00 54 1009.4
20260509203316 91 298 2.0 4.0 0.00 0.00 0.00 57 1009.3
20260509202812 91 251 2.0 4.0 0.00 0.00 0.00 56 1009.3
20260509202309 89 119 4.0 5.0 0.00 0.00 0.00 61 1009.5
20260509201807 89 323 2.0 7.0 0.00 0.00 0.00 61 1009.7
20260509201305 89 137 2.0 3.0 0.00 0.00 0.00 62 1009.6
20260509200801 87 16 4.0 6.0 0.00 0.00 0.00 62 1009.5
20260509200256 87 337 4.0 5.0 0.00 0.00 0.00 62 1009.7
20260509195752 86 323 2.0 3.0 0.00 0.00 0.00 64 1009.8
20260509195248 87 332 4.0 4.0 0.00 0.00 0.00 65 1009.9
20260509194742 87 106 0.0 3.0 0.00 0.00 0.00 62 1009.7
20260509194239 88 301 7.0 7.0 0.00 0.00 0.00 63 1010.0
20260509193736 87 352 0.0 3.0 0.00 0.00 0.00 61 1009.8
20260509193235 87 71 1.0 2.0 0.00 0.00 0.00 60 1010.0
20260509192732 87 315 1.0 4.0 0.00 0.00 0.00 62 1010.1
20260509192227 88 276 0.0 4.0 0.00 0.00 0.00 61 1010.5
20260509191722 87 288 2.0 3.0 0.00 0.00 0.00 63 1010.3
20260509191219 88 84 3.0 3.0 0.00 0.00 0.00 60 1010.4
20260509190715 88 267 3.0 6.0 0.00 0.00 0.00 60 1010.7
20260509190213 91 282 3.0 4.0 0.00 0.00 0.00 57 1010.7
20260509185710 90 299 1.0 4.0 0.00 0.00 0.00 59 1010.8